Munster, Germany

9:39 PM CET on December 03, 2016 (GMT +0100)
Muenster

Weather History for EDDG - April, 2014

Change the Weather History Date:

Wednesday, April 9, 2014

  Actual Average Record
Temperature  
Mean Temperature 46 °F -  
Max Temperature 54 °F 53 °F 65 °F (2015)
Min Temperature 39 °F 37 °F 23 °F (2003)
Degree Days  
Heating Degree Days 18    
Moisture  
Dew Point 41 °F    
Average Humidity 75    
Maximum Humidity 93    
Minimum Humidity 49    
Precipitation  
Precipitation 0.00 in - - ()
Sea Level Pressure  
Sea Level Pressure 30.18 in    
Wind  
Wind Speed 10 mph ()    
Max Wind Speed 18 mph    
Max Gust Speed -    
Visibility 9.1 miles    
Events Rain    
Averages and records for this station are not official NWS values.
T = Trace of Precipitation, MM = Missing Value Source: Averaged Metar Reports

Daily Weather History Graph

Daily Weather History Graph

Search for Another Location

Airport or City:

Trip Planner

Search our weather history database for the weather conditions in past years. The results will help you decide how hot, cold, wet, or windy it might be!

Date:

Astronomy

Apr. 09, 2014 Rise Set
Actual Time 6:46 AM CEST 8:16 PM CEST
Civil Twilight 6:10 AM CEST 8:51 PM CEST
Nautical Twilight 5:27 AM CEST 9:35 PM CEST
Astronomical Twilight 4:40 AM CEST 10:23 PM CEST
Moon 2:11 PM CEST (4/9) 4:05 AM CEST (4/9)
Length of Visible Light 14h 41m
Length of Day
13h 30m
Waxing Gibbous, 69% of the Moon is Illuminated
Apr 9
Waxing Gibbous
Apr 15
Full
Apr 22
Last Quarter
Apr 29
New
May 7
First Quarter

Hourly Weather History & Observations

Time (CEST) Temp. Windchill Dew Point Humidity Pressure Visibility Wind Dir Wind Speed Gust Speed Precip Events Conditions
12:00 AM 42 °F - 39 °F 83% 30.14 in 25 mi WSW 11.2 mph - -   Scattered Clouds
12:20 AM 42.8 °F 37.0 °F 39.2 °F 87% 30.12 in 6.2 mi WSW 10.4 mph - N/A   Partly Cloudy
12:50 AM 42.8 °F 37.0 °F 39.2 °F 87% 30.12 in - WSW 10.4 mph - N/A   Clear
1:00 AM 42 °F - 39 °F 87% 30.16 in 25 mi WSW 8.9 mph - -   Scattered Clouds
1:20 AM 42.8 °F 37.5 °F 39.2 °F 87% 30.15 in - WSW 9.2 mph - N/A   Clear
1:50 AM 42.8 °F 37.5 °F 39.2 °F 87% 30.15 in 6.2 mi West 9.2 mph - N/A   Mostly Cloudy
2:00 AM 43 °F - 40 °F 85% 30.17 in 25 mi West 8.9 mph - -   Partly Cloudy
2:20 AM 42.8 °F 37.0 °F 39.2 °F 87% 30.15 in 6.2 mi West 10.4 mph - N/A   Mostly Cloudy
2:50 AM 41.0 °F 35.2 °F 39.2 °F 93% 30.15 in - West 9.2 mph - N/A   Clear
3:00 AM 42 °F - 38 °F 83% 30.18 in 25 mi West 8.9 mph - -  
3:20 AM 41.0 °F 35.2 °F 39.2 °F 93% 30.15 in - West 9.2 mph - N/A   Clear
3:50 AM 41.0 °F 36.4 °F 37.4 °F 87% 30.15 in - WSW 6.9 mph - N/A   Clear
4:00 AM 40 °F - 38 °F 88% 30.19 in 25 mi WSW 6.7 mph - -  
4:20 AM 41.0 °F 36.4 °F 37.4 °F 87% 30.15 in - WSW 6.9 mph - N/A   Clear
4:50 AM 41.0 °F 36.4 °F 37.4 °F 87% 30.15 in - SW 6.9 mph - N/A   Clear
5:00 AM 41 °F - 38 °F 85% 30.19 in 25 mi SW 6.7 mph - -  
5:20 AM 41.0 °F 36.4 °F 37.4 °F 87% 30.15 in - SW 6.9 mph - N/A   Clear
5:50 AM 41.0 °F 35.8 °F 39.2 °F 93% 30.18 in - WSW 8.1 mph - N/A   Clear
6:00 AM 41 °F - 38 °F 86% 30.19 in 16 mi WSW 6.7 mph - -   Partly Cloudy
6:20 AM 41.0 °F 35.8 °F 39.2 °F 93% 30.18 in - WSW 8.1 mph - N/A   Clear
6:50 AM 41.0 °F 35.8 °F 39.2 °F 93% 30.18 in - WSW 8.1 mph - N/A   Clear
7:00 AM 41 °F - 39 °F 88% 30.20 in 7 mi WSW 8.9 mph - -   Scattered Clouds
7:20 AM 41.0 °F 35.8 °F 39.2 °F 93% 30.18 in 6.2 mi SW 8.1 mph - N/A   Scattered Clouds
7:50 AM 42.8 °F 38.0 °F 39.2 °F 87% 30.18 in 6.2 mi WSW 8.1 mph - N/A   Mostly Cloudy
8:00 AM 42 °F - 40 °F 88% 30.21 in 7 mi WSW 8.9 mph - -   Mostly Cloudy
8:20 AM 42.8 °F 37.5 °F 39.2 °F 87% 30.18 in 6.2 mi WSW 9.2 mph - N/A   Scattered Clouds
8:50 AM 44.6 °F 38.8 °F 41.0 °F 87% 30.18 in - WSW 11.5 mph - N/A   Clear
9:00 AM 45 °F - 41 °F 81% 30.22 in 7 mi WSW 11.2 mph - -   Scattered Clouds
9:20 AM 46.4 °F 40.4 °F 42.8 °F 87% 30.18 in 6.2 mi WSW 13.8 mph - N/A   Mostly Cloudy
9:50 AM 48.2 °F - 42.8 °F 82% 30.21 in 6.2 mi WSW 15.0 mph - N/A   Scattered Clouds
10:00 AM 48 °F - 43 °F 76% 30.23 in 11 mi WSW 15.7 mph - -   Scattered Clouds
10:20 AM 50.0 °F - 42.8 °F 76% 30.21 in 6.2 mi West 16.1 mph - N/A   Scattered Clouds
10:50 AM 50.0 °F - 41.0 °F 71% 30.21 in 6.2 mi West 15.0 mph - N/A   Scattered Clouds
11:00 AM 51 °F - 43 °F 65% 30.22 in 16 mi West 15.7 mph - -   Partly Cloudy
11:20 AM 51.8 °F - 42.8 °F 71% 30.21 in 6.2 mi West 16.1 mph - N/A   Scattered Clouds
11:50 AM 53.6 °F - 42.8 °F 67% 30.21 in 6.2 mi West 17.3 mph - N/A   Mostly Cloudy
12:00 PM 53 °F - 42 °F 57% 30.22 in 19 mi West 17.9 mph - -   Mostly Cloudy
12:20 PM 51.8 °F - 41.0 °F 67% 30.18 in 6.2 mi West 12.7 mph - N/A   Mostly Cloudy
12:50 PM 53.6 °F - 39.2 °F 58% 30.18 in 6.2 mi West 16.1 mph - N/A   Mostly Cloudy
1:00 PM 53 °F - 41 °F 52% 30.22 in 19 mi West 15.7 mph - -   Mostly Cloudy
1:20 PM 53.6 °F - 41.0 °F 62% 30.18 in 6.2 mi West 16.1 mph - N/A   Mostly Cloudy
1:50 PM 53.6 °F - 41.0 °F 62% 30.18 in 6.2 mi West 15.0 mph - N/A   Mostly Cloudy
2:00 PM 53 °F - 40 °F 52% 30.21 in 19 mi West 13.4 mph - -   Mostly Cloudy
2:20 PM 53.6 °F - 39.2 °F 58% 30.18 in 6.2 mi West 17.3 mph - N/A   Mostly Cloudy
2:50 PM 53.6 °F - 41.0 °F 62% 30.18 in 6.2 mi West 12.7 mph - N/A   Mostly Cloudy
3:00 PM 54 °F - 41 °F 52% 30.20 in 19 mi West 11.2 mph - -   Overcast
3:20 PM 53.6 °F - 39.2 °F 58% 30.18 in 6.2 mi West 16.1 mph - N/A   Mostly Cloudy
3:50 PM 53.6 °F - 39.2 °F 58% 30.18 in 6.2 mi West 13.8 mph - N/A Rain Light Rain
4:00 PM 54 °F - 40 °F 49% 30.19 in 19 mi West 13.4 mph - - Rain Light Rain
4:20 PM 53.6 °F - 41.0 °F 62% 30.18 in 6.2 mi West 12.7 mph - N/A Rain Light Rain
4:50 PM 53.6 °F - 41.0 °F 62% 30.15 in 6.2 mi West 13.8 mph - N/A   Mostly Cloudy
5:00 PM 54 °F - 41 °F 50% 30.19 in 19 mi West 13.4 mph - - Rain Light Rain
5:20 PM 53.6 °F - 41.0 °F 62% 30.15 in 6.2 mi West 11.5 mph - N/A Rain Light Rain
5:50 PM 53.6 °F - 42.8 °F 67% 30.15 in 6.2 mi West 8.1 mph - N/A   Mostly Cloudy
6:00 PM 53 °F - 43 °F 59% 30.19 in 16 mi West 6.7 mph - - Rain Light Rain
6:20 PM 53.6 °F - 42.8 °F 67% 30.15 in 6.2 mi West 8.1 mph - N/A Rain Light Rain
6:50 PM 51.8 °F - 42.8 °F 71% 30.15 in 6.2 mi WNW 8.1 mph - N/A Rain Light Rain
7:00 PM 52 °F - 44 °F 66% 30.19 in 9 mi WNW 6.7 mph - - Rain Light Rain
7:20 PM 50.0 °F - 46.4 °F 87% 30.18 in 6.2 mi WNW 6.9 mph - N/A Rain Light Rain
7:50 PM 50.0 °F - 46.4 °F 87% 30.15 in 6.2 mi WNW 4.6 mph - N/A Rain Light Rain
8:00 PM 51 °F - 46 °F 76% 30.19 in 16 mi WNW 4.5 mph - - Rain Light Rain
8:20 PM 51.8 °F - 44.6 °F 76% 30.18 in 6.2 mi WNW 6.9 mph - N/A   Mostly Cloudy
8:50 PM 51.8 °F - 42.8 °F 71% 30.18 in 6.2 mi WNW 9.2 mph - N/A   Mostly Cloudy
9:00 PM 51 °F - 44 °F 68% 30.20 in 16 mi WNW 8.9 mph - - Rain Light Rain
9:20 PM 51.8 °F - 42.8 °F 71% 30.18 in 6.2 mi WNW 12.7 mph - N/A   Mostly Cloudy
9:50 PM 50.0 °F - 42.8 °F 76% 30.18 in 6.2 mi West 10.4 mph - N/A   Mostly Cloudy
10:00 PM 51 °F - 42 °F 64% 30.21 in 16 mi West 11.2 mph - -   Mostly Cloudy
10:20 PM 50.0 °F - 42.8 °F 76% 30.18 in 6.2 mi WNW 10.4 mph - N/A   Mostly Cloudy
10:50 PM 50.0 °F - 42.8 °F 76% 30.18 in 6.2 mi WNW 9.2 mph - N/A   Mostly Cloudy
11:00 PM 51 °F - 43 °F 67% 30.21 in 16 mi WNW 8.9 mph - - Rain Light Rain
11:20 PM 50.0 °F - 44.6 °F 82% 30.18 in 6.2 mi West 9.2 mph - N/A Rain Light Rain
11:50 PM 50.0 °F - 44.6 °F 82% 30.18 in 6.2 mi West 8.1 mph - N/A Rain Light Rain